Tillbaka till svenska Fidonet
English   Information   Debug  
FILM   0/18
FNEWS_PUBLISH   4881
FN_SYSOP   42085
FN_SYSOP_OLD1   71952
FTP_FIDO   0/2
FTSC_PUBLIC   0/13950
FUNNY   0/4886
GENEALOGY.EUR   0/71
GET_INFO   105
GOLDED   0/408
HAM   14129/16617
HOLYSMOKE   0/6791
HOT_SITES   0/1
HTMLEDIT   0/71
HUB203   466
HUB_100   264
HUB_400   39
HUMOR   0/29
IC   0/2851
INTERNET   0/424
INTERUSER   0/3
IP_CONNECT   719
JAMNNTPD   0/233
JAMTLAND   0/47
KATTY_KORNER   0/41
LAN   0/16
LINUX-USER   0/19
LINUXHELP   0/1155
LINUX   0/22287
LINUX_BBS   0/957
mail   18.68
mail_fore_ok   249
MENSA   0/341
MODERATOR   0/102
MONTE   0/992
MOSCOW_OKLAHOMA   0/1245
MUFFIN   0/783
MUSIC   0/321
N203_STAT   938
N203_SYSCHAT   313
NET203   321
NET204   69
NET_DEV   0/10
NORD.ADMIN   0/101
NORD.CHAT   0/2572
NORD.FIDONET   189
NORD.HARDWARE   0/28
NORD.KULTUR   0/114
NORD.PROG   0/32
NORD.SOFTWARE   0/88
NORD.TEKNIK   0/58
NORD   0/453
OCCULT_CHAT   0/93
OS2BBS   0/787
OS2DOSBBS   0/580
OS2HW   0/42
OS2INET   0/37
OS2LAN   0/134
OS2PROG   0/36
OS2REXX   0/113
OS2USER-L   207
OS2   0/4829
OSDEBATE   12320/18996
PASCAL   0/490
PERL   0/457
PHP   0/45
POINTS   0/405
POLITICS   0/29554
POL_INC   2975/14731
PSION   103
R20_ADMIN   1133
R20_AMATORRADIO   0/2
R20_BEST_OF_FIDONET   16
R20_CHAT   0/896
R20_DEPP   0/3
R20_DEV   400
R20_ECHO2   1789
R20_ECHOPRES   0/35
R20_ESTAT   0/719
R20_FIDONETPROG...
...RAM.MYPOINT
  0/2
R20_FIDONETPROGRAM   0/22
R20_FIDONET   0/248
R20_FILEFIND   0/24
R20_FILEFOUND   0/22
R20_HIFI   0/3
R20_INFO2   3682
R20_INTERNET   0/12940
R20_INTRESSE   0/60
R20_INTR_KOM   0/99
R20_KANDIDAT.CHAT   42
R20_KANDIDAT   28
R20_KOM_DEV   112
R20_KONTROLL   0/13360
R20_KORSET   0/18
R20_LOKALTRAFIK   0/24
R20_MODERATOR   0/1852
R20_NC   76
R20_NET200   245
R20_NETWORK.OTH...
...ERNETS
  0/13
R20_OPERATIVSYS...
...TEM.LINUX
  0/44
R20_PROGRAMVAROR   0/1
R20_REC2NEC   534
R20_SFOSM   0/341
R20_SF   0/108
R20_SPRAK.ENGLISH   0/1
R20_SQUISH   107
R20_TEST   2
R20_WORST_OF_FIDONET   20
RAR   0/9
RA_MULTI   106
RA_UTIL   0/162
REGCON.EUR   0/2067
REGCON   0/13
SCIENCE   0/1206
SF   0/239
SHAREWARE_SUPPORT   0/5146
SHAREWRE   0/14
SIMPSONS   0/169
STATS_OLD1   0/2539.065
STATS_OLD2   0/2530
STATS_OLD3   0/2395.095
STATS_OLD4   0/1692.25
SURVIVOR   0/495
SYSOPS_CORNER   0/3
SYSOP   0/84
TAGLINES   0/112
TEAMOS2   0/4530
TECH   0/2617
TEST.444   0/105
TRAPDOOR   0/19
TREK   0/755
TUB   0/290
UFO   0/40
UNIX   0/1316
USA_EURLINK   0/102
USR_MODEMS   0/1
VATICAN   0/2740
VIETNAM_VETS   0/14
VIRUS   0/378
VIRUS_INFO   0/201
VISUAL_BASIC   0/473
WHITEHOUSE   0/5187
WIN2000   0/101
WIN32   0/30
WIN95   0/4291
WIN95_OLD1   0/70272
WINDOWS   0/1517
WWB_SYSOP   0/419
WWB_TECH   0/810
ZCC-PUBLIC   0/1
ZEC   4

 
4DOS   0/134
ABORTION   0/7
ALASKA_CHAT   0/506
ALLFIX_FILE   0/1313
ALLFIX_FILE_OLD1   0/7997
ALT_DOS   0/152
AMATEUR_RADIO   0/1039
AMIGASALE   0/14
AMIGA   0/331
AMIGA_INT   0/1
AMIGA_PROG   0/20
AMIGA_SYSOP   0/26
ANIME   0/15
ARGUS   0/924
ASCII_ART   0/340
ASIAN_LINK   0/651
ASTRONOMY   0/417
AUDIO   0/92
AUTOMOBILE_RACING   0/105
BABYLON5   0/17862
BAG   135
BATPOWER   0/361
BBBS.ENGLISH   0/382
BBSLAW   0/109
BBS_ADS   0/5290
BBS_INTERNET   0/507
BIBLE   0/3563
BINKD   0/1119
BINKLEY   0/215
BLUEWAVE   0/2173
CABLE_MODEMS   0/25
CBM   0/46
CDRECORD   0/66
CDROM   0/20
CLASSIC_COMPUTER   0/378
COMICS   0/15
CONSPRCY   0/899
COOKING   41026
COOKING_OLD1   0/24719
COOKING_OLD2   0/40862
COOKING_OLD3   27605/37489
COOKING_OLD4   0/35496
COOKING_OLD5   9370
C_ECHO   0/189
C_PLUSPLUS   0/31
DIRTY_DOZEN   0/201
DOORGAMES   0/2253
DOS_INTERNET   0/196
duplikat   6102
ECHOLIST   0/18295
EC_SUPPORT   0/318
ELECTRONICS   0/359
ELEKTRONIK.GER   1534
ENET.LINGUISTIC   0/13
ENET.POLITICS   0/4
ENET.SOFT   0/11701
ENET.SYSOP   34256
ENET.TALKS   0/32
ENGLISH_TUTOR   0/2000
EVOLUTION   0/1335
FDECHO   0/217
FDN_ANNOUNCE   0/7068
FIDONEWS   24978
FIDONEWS_OLD1   0/49742
FIDONEWS_OLD2   22086/35949
FIDONEWS_OLD3   0/30874
FIDONEWS_OLD4   0/37224
FIDO_SYSOP   12920
FIDO_UTIL   0/180
FILEFIND   0/209
FILEGATE   0/212
Möte HAM, 16617 texter
 lista första sista föregående nästa
Text 2161, 787 rader
Skriven 2008-03-06 22:00:20 av Amsat List (1:323/120.0)
Ärende: [keps]  orb08066.amsa
=============================
[keps]  orb08066.amsa

Return-Path: <keps-bounces@amsat.org>
X-Rcpt: craig.healy@chowda.com
X-UIDL: 1204857717.10104

SB KEPS @ AMSAT  $ORB08066.O
Orbital Elements  08066.OSCAR

HR AMSAT ORBITAL ELEMENTS FOR OSCAR SATELLITES
FROM WA5QGD FORT WORTH,TX March 6, 2008
Send Subscribe/unsubscribe to KEPS at 
http://www.amsat.org/mailman/listinfo/keps
BID: ORB08066.O
TO ALL RADIO AMATEURS BT

Satellite: AO-07
Catalog number: 07530
Epoch time:      08066.10387737
Element set:     119
Inclination:      101.4802 deg
RA of node:       101.0044 deg
Eccentricity:    0.0012105
Arg of perigee:   103.3523 deg
Mean anomaly:     256.8901 deg
Mean motion:   12.53573493 rev/day
Decay rate:       -2.7e-07 rev/day^2
Epoch rev:           52406
Checksum:              252

Satellite: AO-10
Catalog number: 14129
Epoch time:      08063.86448780
Element set:    0478
Inclination:      025.9236 deg
RA of node:       227.3594 deg
Eccentricity:    0.6022951
Arg of perigee:   103.8050 deg
Mean anomaly:     326.4123 deg
Mean motion:   02.05872086 rev/day
Decay rate:      -3.15e-06 rev/day^2
Epoch rev:           18593
Checksum:              305

Satellite: UO-11
Catalog number: 14781
Epoch time:      08066.26029560
Element set:     612
Inclination:      098.1669 deg
RA of node:       098.6946 deg
Eccentricity:    0.0009882
Arg of perigee:   049.4997 deg
Mean anomaly:     310.7115 deg
Mean motion:   14.79623064 rev/day
Decay rate:       3.06e-06 rev/day^2
Epoch rev:           28863
Checksum:              338

Satellite: RS-15
Catalog number: 23439
Epoch time:      08065.86524720
Element set:     100
Inclination:      064.8197 deg
RA of node:       302.1327 deg
Eccentricity:    0.0150106
Arg of perigee:   142.3771 deg
Mean anomaly:     218.7766 deg
Mean motion:   11.27551551 rev/day
Decay rate:       -3.9e-07 rev/day^2
Epoch rev:           54331
Checksum:              282

Satellite: FO-29
Catalog number: 24278
Epoch time:      08066.55039286
Element set:     718
Inclination:      098.5854 deg
RA of node:       356.2711 deg
Eccentricity:    0.0351358
Arg of perigee:   121.1813 deg
Mean anomaly:     242.4273 deg
Mean motion:   13.52935252 rev/day
Decay rate:       -7.8e-07 rev/day^2
Epoch rev:           57051
Checksum:              320

Satellite: SO-33
Catalog number: 25509
Epoch time:      08066.71820416
Element set:     147
Inclination:      031.4318 deg
RA of node:       175.7400 deg
Eccentricity:    0.0355457
Arg of perigee:   211.3495 deg
Mean anomaly:     146.5479 deg
Mean motion:   14.28201332 rev/day
Decay rate:        5.0e-07 rev/day^2
Epoch rev:           48895
Checksum:              298

Satellite: AO-40
Catalog number: 26609
Epoch time:      08066.09989457
Element set:      19
Inclination:      007.4716 deg
RA of node:       094.2411 deg
Eccentricity:    0.7923203
Arg of perigee:   058.5157 deg
Mean anomaly:     355.3991 deg
Mean motion:   01.25584609 rev/day
Decay rate:      -3.47e-06 rev/day^2
Epoch rev:            3374
Checksum:              328

Satellite: VO-52
Catalog number: 28650
Epoch time:      08066.40387720
Element set:     873
Inclination:      097.8000 deg
RA of node:       135.7914 deg
Eccentricity:    0.0028283
Arg of perigee:   115.1874 deg
Mean anomaly:     245.2287 deg
Mean motion:   14.81427320 rev/day
Decay rate:      -1.83e-06 rev/day^2
Epoch rev:           15338
Checksum:              306

Satellite: PO-63
Catalog number: 29712
Epoch time:      08066.73743296
Element set:     245
Inclination:      097.8872 deg
RA of node:       126.8050 deg
Eccentricity:    0.0014193
Arg of perigee:   359.1920 deg
Mean anomaly:     000.9268 deg
Mean motion:   14.80048368 rev/day
Decay rate:       6.87e-06 rev/day^2
Epoch rev:            6231
Checksum:              322

/EX
SB KEPS @ AMSAT  $ORB08066.D
Orbital Elements  08066.MICROS

HR AMSAT ORBITAL ELEMENTS FOR THE MICROSATS
FROM WA5QGD FORT WORTH,TX March 6, 2008
Send Subscribe/unsubscribe to KEPS at 
http://www.amsat.org/mailman/listinfo/keps
BID: ORB08066.D
TO ALL RADIO AMATEURS BT

Satellite: AO-16
Catalog number: 20439
Epoch time:      08065.99350876
Element set:     267
Inclination:      098.2210 deg
RA of node:       051.3777 deg
Eccentricity:    0.0011626
Arg of perigee:   120.3242 deg
Mean anomaly:     239.9100 deg
Mean motion:   14.31786050 rev/day
Decay rate:        1.7e-07 rev/day^2
Epoch rev:           94615
Checksum:              291

Satellite: LO-19
Catalog number: 20442
Epoch time:      08066.40731705
Element set:     192
Inclination:      098.1946 deg
RA of node:       060.6007 deg
Eccentricity:    0.0012773
Arg of perigee:   118.6259 deg
Mean anomaly:     241.6221 deg
Mean motion:   14.32024940 rev/day
Decay rate:       -3.2e-07 rev/day^2
Epoch rev:           94636
Checksum:              281

Satellite: AO-27
Catalog number: 22825
Epoch time:      08066.42958868
Element set:     914
Inclination:      098.3711 deg
RA of node:       030.3699 deg
Eccentricity:    0.0007858
Arg of perigee:   199.5987 deg
Mean anomaly:     160.4912 deg
Mean motion:   14.29232191 rev/day
Decay rate:        3.2e-07 rev/day^2
Epoch rev:           75309
Checksum:              344

Satellite: IO-26
Catalog number: 22826
Epoch time:      08066.43147219
Element set:     617
Inclination:      098.3645 deg
RA of node:       031.3296 deg
Eccentricity:    0.0008477
Arg of perigee:   196.2730 deg
Mean anomaly:     163.8189 deg
Mean motion:   14.29480051 rev/day
Decay rate:        1.4e-07 rev/day^2
Epoch rev:           75318
Checksum:              316

